Regional Weather Roundup
Issued by NWS

Current Version | Previous Version | Text Only | Print | Product List | Glossary On
Versions: 1 2 3 4 5 6 7 8 9 10 11 12 13 14 15 16 17 18 19 20 21 22 23 24 25 26 27 28 29 30 31 32 33 34 35 36 37 38 39 40 41 42 43 44 45 46 47 48 49 50
000
ASUS43 KTOP 010759
RWRKS

WEATHER ROUNDUP FOR KANSAS
NATIONAL WEATHER SERVICE GOODLAND KS
200 AM CST MON MAR 01 2021

NOTE:  "FAIR" INDICATES FEW OR NO CLOUDS BELOW 12,000 FEET WITH NO
SIGNIFICANT WEATHER AND/OR OBSTRUCTIONS TO VISIBILITY.

KSZ001>006-013>018-027>032-041>047-010900-
NORTHWEST KANSAS

CITY           SKY/WX    TMP DP  RH WIND       PRES   REMARKS
GOODLAND       CLEAR     21   7  54 SW12      30.22R WCI   9
HAYS           CLEAR     15  12  88 W7        30.24S
HILL CITY      CLEAR     21  14  74 W7        30.24R
RUSSELL        CLEAR     17  12  80 SW6       30.23R
$$

KSZ061>065-074>080-084>089-010900-
SOUTHWEST KANSAS

CITY           SKY/WX    TMP DP  RH WIND       PRES   REMARKS
DODGE CITY     CLEAR     20  13  74 SW6       30.25R
GARDEN CITY    CLEAR     21  14  74 CALM      30.25R
GREAT BEND     CLEAR     18  14  84 S6        30.25S
LIBERAL        CLEAR     16   9  74 W3        30.27R
$$

KSZ066>073-081>083-090>101-010900-
SOUTHEAST KANSAS

CITY           SKY/WX    TMP DP  RH WIND       PRES   REMARKS
CHANUTE        CLEAR     32  27  81 N7        30.25R
COFFEYVILLE    CLEAR     34  27  75 N8        30.24R
HUTCHINSON     CLEAR     27  22  81 NW5       30.26R
NEWTON         CLEAR     23  21  92 N6        30.26R
PARSONS          N/A    N/A N/A N/A MISG      30.26R
WICHITA INTL   CLEAR     29  24  82 NW7       30.25R
WICHITA JABRA  CLEAR     27  23  85 NW7       30.25R
WICHITA MCCONL CLEAR     29  28  92 N9        30.25R
WINFIELD       CLEAR     30  25  81 N5        30.26R
$$

KSZ007>012-019>026-033>040-048>060-102>105-010900-
NORTHEAST KANSAS

CITY           SKY/WX    TMP DP  RH WIND       PRES   REMARKS
CONCORDIA      CLEAR     27  22  81 SW7       30.22S
EMPORIA        CLEAR     27  25  92 W5        30.24R
LAWRENCE       CLEAR     21  19  92 NW3       30.25R
MANHATTAN      CLEAR     20  16  84 CALM      30.25S
OLATHE IND     CLEAR     29  24  82 CALM      30.24R
OLATHE EXE     CLEAR     28  25  88 CALM      30.23R
SALINA         CLEAR     20  18  92 S3        30.25S
TOPEKA BILLARD CLEAR     28  24  85 W3        30.26R
TOPEKA FORBES  CLEAR     25  23  92 NW6       30.25R
$$




USA.gov is the U.S. government's official web portal to all federal, state and local government web resources and services.